Regional Weather Roundup
Issued by NWS

Home | Current Version | Previous Version | Graphics & Text | Print | Product List | Glossary On
Versions: 1 2 3 4 5 6 7 8 9 10 11 12 13 14 15 16 17 18 19 20 21 22 23 24 25 26 27 28 29 30 31 32 33 34 35 36 37 38 39 40 41 42 43 44 45 46 47 48 49 50
000
ASUS43 KOAX 221202
RWRNE

WEATHER ROUNDUP FOR NEBRASKA
NATIONAL WEATHER SERVICE OMAHA NE
600 AM CST WED NOV 22 2017

NOTES: SATELLITE DATA IS BEING USED TO AUGMENT CLOUD COVER ABOVE
       12000 FEET.
       "FAIR" INDICATES FEW OR NO CLOUDS BELOW 12,000 FEET WITH NO
       SIGNIFICANT WEATHER AND/OR OBSTRUCTIONS TO VISIBILITY.


NEZ001>004-019>022-054>056-221300-
NEBRASKA PANHANDLE

CITY           SKY/WX    TMP DP  RH WIND       PRES   REMARKS
SCOTTSBLUFF    CLOUDY    29  24  82 CALM      30.17S
6HR MIN TEMP:  29; 6HR MAX TEMP:  33;

ALLIANCE       CLOUDY    30  29  96 SW8       30.13S WCI  22
6HR MIN TEMP:  24; 6HR MAX TEMP:  30;

CHADRON        CLOUDY    33  30  88 SW7       30.10F WCI  27
6HR MIN TEMP:  24; 6HR MAX TEMP:  35;

GORDON         FAIR      34  28  80 W7        30.10S WCI  28
6HR MIN TEMP:  28; 6HR MAX TEMP:  34;

KIMBALL        CLOUDY    37  32  85 CALM      30.19R
SIDNEY         CLOUDY    33  29  85 W8        30.17F WCI  26
6HR MIN TEMP:  27; 6HR MAX TEMP:  36;

$$

NEZ057>060-069>072-079>082-221300-
SOUTHWEST NEBRASKA

CITY           SKY/WX    TMP DP  RH WIND       PRES   REMARKS
NORTH PLATTE   CLOUDY    30  19  63 S5        30.21R WCI  25
6HR MIN TEMP:  21; 6HR MAX TEMP:  32;

IMPERIAL       CLOUDY    32  26  78 S5        30.19F WCI  27
6HR MIN TEMP:  23; 6HR MAX TEMP:  32;

LEXINGTON      CLOUDY    28  14  55 S8        30.26F WCI  20
MCCOOK         CLOUDY    30  21  69 S7        30.24F WCI  23
6HR MIN TEMP:  22; 6HR MAX TEMP:  30;

OGALLALA       CLOUDY    27  24  89 CALM      30.18F
$$

NEZ005>010-023>029-035>040-094-221300-
NORTH CENTRAL NEBRASKA

CITY           SKY/WX    TMP DP  RH WIND       PRES   REMARKS
VALENTINE      CLOUDY    30  20  66 SW9       30.12F WCI  22
6HR MIN TEMP:  18; 6HR MAX TEMP:  30;

AINSWORTH      CLOUDY    29  18  63 SW15      30.14F WCI  17
BROKEN BOW     CLOUDY    27  13  55 S7        30.22F WCI  19
6HR MIN TEMP:  16; 6HR MAX TEMP:  27;

O`NEILL        CLOUDY    19  15  83 S12       30.23F WCI   7
ORD            CLOUDY    19  14  81 SE5       30.26F WCI  12
6HR MIN TEMP:  12; 6HR MAX TEMP:  20;

THEDFORD       CLOUDY    30  19  63 S6        30.17F WCI  24
$$

NEZ041-046>049-061>064-073>077-083>087-221300-
SOUTH CENTRAL NEBRASKA

CITY           SKY/WX    TMP DP  RH WIND       PRES   REMARKS
GRAND ISLAND   CLOUDY    20  15  81 S8        30.33F WCI  10
6HR MIN TEMP:  16; 6HR MAX TEMP:  20;

AURORA         CLOUDY    19  13  77 S5        30.32F WCI  12
HASTINGS       CLOUDY    19  11  70 S6        30.33S WCI  11
6HR MIN TEMP:  14; 6HR MAX TEMP:  19;

HEBRON         CLOUDY    15  12  87 CALM      30.38F
HOLDREGE       CLOUDY    25  13  60 S12G18    30.29R WCI  15
KEARNEY        CLOUDY    23  15  71 S9        30.30F WCI  13
YORK           CLOUDY    14  12  92 CALM      30.35F
$$

NEZ011>018-030>034-042>045-221300-
NORTHEAST NEBRASKA

CITY           SKY/WX    TMP DP  RH WIND       PRES   REMARKS
NORFOLK        CLOUDY    13   9  84 S5        30.31F WCI   5
6HR MIN TEMP:  10; 6HR MAX TEMP:  15;

ALBION         CLOUDY    15  10  80 SE3       30.31S
BLAIR          CLOUDY    15  11  85 CALM      30.36S
COLUMBUS       CLOUDY    12   8  84 CALM      30.35F
FREMONT        CLOUDY    13  10  86 NW5       30.37S WCI   5
TEKAMAH        CLOUDY     8   4  83 SW3       30.39S
6HR MIN TEMP:   8; 6HR MAX TEMP:  16;

WAYNE          CLOUDY    10   7  88 CALM      30.34S
$$

NEZ050>053-065>068-078-088>093-221300-
SOUTHEAST NEBRASKA

CITY           SKY/WX    TMP DP  RH WIND       PRES   REMARKS
LINCOLN        CLOUDY    15  10  80 MISG      30.40F
6HR MIN TEMP:  12; 6HR MAX TEMP:  20;

OMAHA EPPLEY   CLOUDY    18  10  71 CALM      30.39F
6HR MIN TEMP:  15; 6HR MAX TEMP:  21;

BEATRICE       CLOUDY    15  12  85 CALM      30.38F
FALLS CITY     CLOUDY    15  11  83 W3        30.40F
6HR MIN TEMP:  14; 6HR MAX TEMP:  20;

NEBRASKA CITY  CLOUDY    15  13  90 W5        30.39F WCI   7
PLATTSMOUTH    CLOUDY    16  12  84 W3        30.38S
$$

NEZ044-045-051>053-067-221300-
OMAHA AREA

CITY           SKY/WX    TMP DP  RH WIND       PRES   REMARKS
OMAHA EPPLEY   CLOUDY    18  10  71 CALM      30.39F
6HR MIN TEMP:  15; 6HR MAX TEMP:  21;

BLAIR          CLOUDY    15  11  85 CALM      30.36S
FREMONT        CLOUDY    13  10  86 NW5       30.37S WCI   5
MILLARD        CLOUDY    18  14  86 CALM      30.40R
OFFUTT AFB     CLOUDY    15   9  76 SW3       30.39S
PLATTSMOUTH    CLOUDY    16  12  84 W3        30.38S
WAHOO          FAIR      18  14  83 CALM      30.37F
$$



USA.gov is the U.S. government's official web portal to all federal, state and local government web resources and services.